Temperature
14 13 14 13 13 13 13 13 13 12 12 12 12 12 12 12 12 12 12 14 14 14 13 13 13 13 13 13 13 13 12 12 11 11 11 11 12 12 12 12 12 12 12
14 13 13 13 13 13 13 13 13 13 13 13 13 13 12 12 12 12 12 12 13 14 13 13 13 13 13 12 12 12 12 12 11 11 11 11 11 11 11 12 12 12 12
14 13 14 14 13 13 13 13 13 13 13 12 12 12 12 12 12 12 12 12 12 13 13 13 13 13 13 13 12 12 11 11 11 11 11 11 11 11 11 11 11 11 11
14 14 14 14 13 13 13 13 12 12 12 11 11 11 11 11 11 11 12 12 12 12 12 13 13 13 12 12 12 11 11 11 11 11 11 11 11 11 11 10 10 10 10
14 14 13 13 12 12 12 12 12 11 11 11 11 11 11 11 11 11 11 11 11 11 12 12 12 13 13 12 12 12 11 11 11 11 10 10 11 11 11 11 11 10 10
13 13 12 12 12 12 12 11 11 11 10 10 10 10 10 10 11 11 11 11 11 10 10 11 11 11 12 12 12 12 12 12 11 11 11 10 10 10 10 10 11 11 10
12 12 12 12 12 11 11 11 10 10 10 9 9 9 10 11 11 11 11 10 11 10 10 10 10 10 10 11 11 12 12 11 11 11 11 11 10 10 10 10 10 10 11
12 12 11 11 11 11 11 10 10 9 9 8 8 8 9 10 11 10 10 10 10 10 10 10 10 9 9 9 9 10 11 11 11 11 10 10 10 10 10 10 10 10 10
11 11 11 11 10 10 9 9 8 8 7 7 7 6 7 8 7 7 8 8 8 9 9 9 9 9 9 9 9 9 9 9 10 10 9 10 10 10 10 10 10 10 10
11 10 10 10 9 9 8 8 7 7 6 5 5 5 5 5 5 6 6 7 7 7 7 7 7 7 8 8 8 8 8 8 8 8 8 9 9 9 10 10 10 10 10
10 10 9 9 8 7 7 7 6 6 5 5 4 4 4 4 4 4 4 5 5 5 5 6 6 6 6 6 7 7 7 7 7 7 7 7 8 8 9 9 10 10 10
9 9 8 7 7 7 6 6 6 5 5 4 4 3 3 2 3 3 3 3 4 4 4 4 5 5 5 5 5 5 5 5 5 5 5 6 6 7 7 8 8 9 9
8 8 7 7 6 6 5 5 5 5 4 4 3 2 2 2 1 1 2 2 2 3 3 3 4 4 4 4 4 4 3 3 3 3 3 4 4 5 6 6 7 7 8
7 6 6 5 5 5 4 4 4 4 3 2 2 1 1 0 0 0 0 0 1 1 2 2 2 2 2 3 2 2 1 1 1 1 2 2 3 4 4 4 5 6 7
6 5 5 4 4 4 4 3 3 2 2 1 1 0 -0 -1 -1 -1 -1 -1 -1 -1 -0 1 1 1 1 1 1 0 -0 -0 -0 -0 0 1 2 2 3 3 4 5 5
4 4 4 4 3 3 3 2 2 1 0 -0 -1 -1 -1 -2 -2 -2 -2 -2 -2 -2 -2 -1 -1 -1 -0 -0 -0 -1 -1 -1 -1 -1 -1 -0 0 1 2 3 3 4 4
3 3 3 2 2 2 1 1 0 -0 -1 -1 -2 -2 -2 -2 -3 -3 -3 -3 -3 -3 -3 -3 -2 -2 -2 -2 -2 -2 -2 -2 -2 -1 -1 -1 -0 0 1 2 2 3 4
2 2 2 1 1 1 0 -0 -1 -2 -2 -2 -3 -3 -3 -3 -4 -4 -4 -4 -4 -4 -4 -4 -4 -3 -3 -3 -3 -3 -3 -3 -2 -2 -2 -2 -1 -0 0 1 1 2 3
1 1 1 0 0 -0 -1 -2 -2 -3 -3 -3 -3 -4 -4 -4 -5 -5 -5 -5 -5 -5 -5 -5 -4 -4 -4 -4 -4 -4 -4 -3 -3 -3 -2 -2 -1 -1 -0 0 0 1 2
1 0 0 -0 -1 -1 -2 -3 -3 -4 -4 -4 -4 -5 -5 -5 -6 -6 -6 -5 -5 -5 -5 -5 -5 -5 -4 -4 -4 -4 -4 -4 -4 -3 -3 -2 -2 -1 -1 -1 0 1 2
0 -0 -1 -1 -2 -2 -3 -3 -4 -5 -5 -5 -5 -5 -6 -6 -7 -6 -6 -6 -6 -6 -6 -5 -5 -5 -5 -5 -5 -5 -5 -5 -5 -4 -4 -3 -2 -2 -2 -2 -1 0 1
-1 -1 -1 -2 -3 -3 -3 -4 -5 -6 -6 -6 -6 -6 -6 -6 -7 -7 -6 -6 -6 -6 -6 -6 -6 -6 -6 -6 -6 -6 -6 -6 -5 -4 -4 -4 -3 -3 -3 -2 -1 -0 0
-1 -2 -3 -3 -4 -4 -5 -5 -7 -8 -7 -7 -7 -7 -7 -7 -7 -7 -7 -7 -6 -6 -6 -7 -7 -7 -7 -7 -7 -7 -7 -6 -6 -5 -5 -4 -4 -4 -3 -3 -2 -1 0
-2 -3 -4 -4 -5 -5 -6 -7 -8 -8 -7 -7 -7 -7 -7 -7 -7 -7 -7 -7 -7 -7 -7 -7 -8 -8 -8 -8 -8 -7 -7 -7 -6 -5 -5 -5 -4 -4 -4 -3 -2 -1 -0
-4 -4 -5 -5 -6 -6 -7 -8 -8 -8 -8 -7 -7 -7 -7 -7 -7 -7 -7 -7 -7 -7 -8 -8 -8 -8 -8 -8 -8 -8 -7 -7 -6 -6 -6 -5 -5 -5 -5 -4 -2 -1 -0
-4 -5 -6 -6 -7 -7 -8 -9 -9 -8 -8 -8 -8 -8 -8 -8 -8 -8 -8 -8 -8 -8 -9 -9 -9 -9 -9 -9 -9 -8 -8 -8 -7 -7 -6 -6 -6 -6 -6 -5 -3 -2 -0
Wind_Speed
6 6 6 7 8 8 8 8 9 11 12 12 12 14 15 16 16 16 15 17 22 25 27 27 28 29 30 31 32 32 32 32 33 33 33 33 32 32 32 32 32 32 32
6 6 7 7 8 8 8 8 10 11 11 11 13 14 16 16 16 17 17 17 19 24 27 29 29 30 31 32 33 33 33 34 34 34 35 35 35 35 35 35 35 35 35
6 6 7 7 7 8 9 9 10 10 10 11 13 14 14 15 16 17 17 16 16 19 25 28 30 31 31 32 33 34 34 34 35 35 35 36 37 37 38 37 37 37 37
6 6 6 7 8 8 7 8 9 10 10 11 12 12 13 13 17 17 16 16 15 15 17 23 27 29 30 32 33 35 35 35 34 34 35 35 35 37 39 40 39 39 39
5 4 5 6 8 6 6 7 8 9 11 12 12 13 13 14 16 16 17 17 16 16 16 16 20 25 28 31 32 34 35 35 34 34 35 36 36 36 39 40 41 41 41
11 8 7 9 9 7 8 9 10 10 10 11 13 13 14 15 15 15 16 15 15 16 17 18 16 15 21 26 29 31 32 33 34 34 35 36 37 38 39 40 40 41 42
14 11 8 9 9 8 9 10 9 12 11 12 13 14 15 15 14 13 12 14 17 17 18 18 16 15 12 17 23 27 29 31 32 33 35 36 37 39 41 42 42 42 42
13 10 10 8 9 8 9 10 10 9 9 11 12 14 12 14 12 14 17 17 18 17 18 18 17 17 16 14 13 17 23 28 30 32 34 35 37 38 40 41 43 44 44
13 11 10 9 9 8 8 10 10 10 11 11 11 9 10 12 18 14 15 15 18 17 18 18 21 21 21 18 18 18 19 24 30 32 33 34 36 37 38 39 40 42 43
12 12 11 10 9 8 9 9 10 9 10 10 10 8 11 15 13 15 15 16 18 19 20 19 20 21 21 19 18 19 17 20 28 31 32 34 35 36 37 38 39 40 41
10 11 10 9 9 8 9 10 10 10 9 10 10 11 12 13 15 18 21 19 18 17 18 19 19 19 20 20 18 17 17 21 25 28 31 32 33 34 35 35 35 37 38
6 10 9 9 9 8 9 10 10 11 10 11 10 10 11 12 14 16 20 22 21 19 19 18 18 17 17 17 19 16 22 25 27 29 31 32 33 33 33 33 33 32 33
7 10 9 9 9 9 10 10 10 10 10 11 11 11 11 12 13 15 17 20 23 21 21 18 17 17 17 17 17 17 21 27 29 30 32 33 34 33 33 33 33 33 33
7 9 9 9 10 10 10 10 9 10 10 11 12 13 12 12 12 13 15 18 21 22 22 24 19 19 18 18 17 16 21 26 30 32 33 34 34 33 32 32 32 32 33
6 9 9 10 10 10 11 12 10 11 12 12 13 14 13 13 12 13 14 15 17 21 23 26 23 22 19 19 18 19 23 29 33 34 36 35 34 32 32 31 31 31 31
8 9 10 11 11 11 12 12 11 11 13 14 13 15 15 14 14 14 14 15 16 18 22 22 23 24 24 20 24 24 25 32 34 34 34 34 33 32 32 31 31 31 31
9 10 10 11 11 12 13 13 13 14 15 16 16 17 18 18 15 15 16 16 16 17 20 21 21 23 27 26 24 23 23 23 23 31 33 33 33 34 33 32 31 30 30
9 9 10 11 12 12 13 14 15 15 17 18 18 18 19 17 19 18 16 18 18 18 18 22 22 23 27 26 25 25 22 21 22 29 32 33 33 33 32 32 31 30 29
9 10 10 11 12 13 14 14 15 17 18 19 19 20 20 20 20 18 20 19 17 17 18 20 22 21 21 22 24 24 25 21 22 23 27 28 29 29 30 32 32 31 28
10 10 11 12 13 14 14 15 17 19 19 20 19 19 19 20 20 21 19 19 18 20 20 19 19 20 21 23 21 21 21 20 19 20 22 24 26 28 29 31 31 28 24
10 10 12 12 13 13 13 17 19 20 20 21 20 19 19 21 23 21 19 20 21 20 20 19 19 20 21 21 21 20 21 20 21 19 19 18 18 17 19 24 26 25 24
10 11 13 14 14 13 18 22 21 20 20 20 20 19 19 20 22 26 27 27 27 24 22 20 20 22 25 24 22 21 21 21 22 18 17 19 18 18 18 17 24 29 28
12 13 14 15 16 17 20 23 24 21 19 18 19 19 18 18 24 21 25 29 28 28 26 22 24 25 26 24 24 25 23 24 23 20 19 20 18 18 17 18 28 30 29
12 14 15 16 17 17 20 22 25 20 18 18 18 20 21 22 21 24 26 25 23 22 25 23 22 24 24 25 24 25 25 24 23 18 16 18 17 17 17 16 25 28 27
14 14 15 16 17 18 19 22 23 18 17 19 19 20 22 22 26 31 27 24 24 24 25 30 31 30 33 32 26 19 19 18 19 16 13 14 16 15 15 16 18 21 19
14 15 15 15 16 17 19 21 23 15 18 18 19 20 23 24 29 33 26 24 25 25 25 26 25 25 23 23 25 18 16 16 18 16 13 11 14 12 10 10 10 11 11
Wind_Direction
268 276 280 283 284 287 287 289 290 291 289 286 281 278 276 274 272 269 268 250 247 254 257 257 257 257 256 254 253 253 253 253 249 245 242 242 242 241 241 240 240 240 240
277 287 288 287 287 289 292 292 292 292 288 287 285 283 280 278 275 274 273 267 247 249 253 255 255 255 255 254 254 253 252 251 251 250 246 243 241 241 241 241 240 240 240
281 284 285 290 297 302 303 301 302 298 295 294 292 290 288 284 282 279 276 273 269 253 250 255 257 256 254 253 253 253 252 251 249 249 249 247 243 240 239 239 240 240 240
297 299 304 315 325 324 320 317 313 308 305 303 302 300 295 289 284 281 278 274 272 270 261 253 256 259 260 259 258 256 254 252 250 248 248 248 246 243 241 240 239 239 239
360 350 350 350 348 346 343 336 325 321 315 312 307 302 297 292 288 284 279 278 276 274 274 268 255 255 259 261 261 261 260 258 255 252 250 249 248 247 245 243 241 240 240
48 44 39 28 19 16 7 355 343 333 322 319 312 304 301 295 287 284 286 288 286 282 279 279 276 264 253 258 262 262 262 262 261 259 256 253 251 250 249 248 245 243 242
51 46 38 31 21 16 6 356 347 335 329 331 317 312 303 292 296 294 301 302 297 293 289 283 280 279 273 258 258 261 263 264 264 263 261 259 257 254 252 250 248 247 245
45 39 32 24 16 4 1 356 351 337 330 332 326 320 315 310 306 318 306 297 298 299 296 296 294 289 285 282 271 259 264 268 269 268 266 264 261 259 256 253 251 249 247
39 35 27 18 10 4 357 352 350 342 332 329 334 321 317 314 317 299 310 312 307 305 305 303 299 295 291 285 282 271 260 266 272 274 274 272 269 265 261 258 255 252 250
35 27 21 15 8 2 356 350 348 340 333 330 328 321 311 308 308 308 308 307 309 307 303 300 298 296 295 293 287 282 280 280 284 284 282 280 276 273 268 264 260 257 255
31 22 14 9 5 359 354 347 342 341 335 330 326 320 315 312 307 309 309 309 305 300 299 298 296 295 295 294 294 303 340 328 315 306 300 294 289 285 282 278 272 267 261
20 18 8 7 4 359 351 345 338 337 333 329 323 317 314 311 309 306 304 306 306 304 302 298 295 294 294 298 300 320 333 324 317 311 306 302 299 296 294 291 287 284 279
12 8 5 1 359 353 347 342 333 330 326 324 316 314 308 303 303 302 301 303 304 304 303 299 298 299 299 297 294 317 317 313 309 306 303 301 299 298 296 293 291 287 284
4 358 354 351 349 345 340 336 324 324 321 318 313 311 305 302 303 302 302 303 304 304 303 300 303 303 301 298 297 312 301 301 301 300 299 298 295 293 291 289 288 286 282
353 350 347 344 342 339 335 330 323 321 320 316 312 309 305 302 301 302 300 299 299 300 300 302 304 303 303 297 298 298 297 296 296 295 292 290 289 289 289 288 286 285 283
350 345 344 339 336 332 330 325 319 318 316 313 309 305 304 301 302 300 299 297 292 290 292 295 299 301 303 299 298 297 294 293 290 288 287 286 286 286 287 287 285 284 283
346 342 337 330 328 327 327 322 319 317 313 311 309 307 305 303 302 301 300 295 292 290 289 292 295 299 301 300 298 296 293 292 290 288 288 287 286 286 285 284 284 283 282
340 334 327 323 324 325 324 319 317 316 313 311 310 308 306 306 304 302 299 297 295 293 293 295 297 299 299 301 300 300 299 295 291 290 288 285 282 282 283 284 284 283 282
330 326 324 323 323 323 319 316 317 314 312 309 309 307 307 307 304 304 303 299 298 299 298 296 296 297 298 300 303 300 298 295 293 291 291 288 285 285 286 286 285 282 280
322 322 321 321 319 319 315 319 319 314 311 309 307 306 307 307 306 306 303 302 304 303 300 297 297 299 301 301 301 300 299 298 297 297 293 289 286 287 288 288 285 279 276
315 315 316 317 318 317 318 322 317 313 311 309 308 309 308 306 303 302 302 304 305 302 301 301 302 304 303 303 302 301 298 299 297 295 293 290 291 291 291 290 287 280 272
314 316 317 318 317 315 318 316 316 313 311 310 311 311 309 306 306 306 304 303 302 301 301 303 304 303 302 300 300 299 299 297 296 294 294 293 293 289 287 284 281 279 275
317 316 316 316 314 313 315 316 317 315 311 310 310 310 309 308 309 308 307 307 304 300 299 302 302 301 300 299 299 297 295 293 290 292 296 290 289 287 288 286 287 282 277
315 313 313 312 311 311 316 319 319 318 313 310 310 309 308 309 310 312 311 309 306 306 305 304 300 298 296 296 294 293 293 291 287 286 286 288 292 291 292 292 288 281 277
312 311 310 311 312 314 319 319 321 318 314 313 312 310 310 309 311 314 315 311 311 311 310 306 303 300 298 298 297 295 292 291 292 294 295 291 293 295 295 293 285 284 286
308 309 309 311 312 314 315 318 321 318 316 315 313 312 311 312 314 317 316 314 313 313 313 310 308 306 303 298 296 293 294 295 295 295 297 294 295 302 299 290 303 311 307
Height
1500 1499 1498 1497 1496 1494 1492 1490 1488 1487 1485 1482 1480 1478 1475 1473 1470 1468 1464 1461 1459 1458 1456 1454 1453 1452 1451 1450 1450 1450 1450 1451 1452 1452 1452 1453 1453 1454 1454 1455 1456 1457 1458
1497 1496 1496 1495 1494 1492 1490 1488 1486 1483 1481 1478 1476 1473 1470 1468 1464 1461 1458 1455 1452 1450 1449 1447 1446 1444 1443 1442 1441 1441 1441 1441 1442 1443 1444 1444 1444 1445 1445 1446 1447 1448 1449
1495 1494 1493 1492 1491 1489 1487 1485 1482 1480 1476 1473 1470 1467 1464 1461 1458 1455 1452 1449 1445 1443 1441 1439 1438 1436 1435 1433 1432 1431 1431 1431 1431 1431 1432 1433 1434 1434 1435 1435 1436 1438 1439
1493 1492 1491 1489 1488 1486 1483 1481 1478 1476 1472 1469 1465 1462 1459 1455 1451 1448 1445 1443 1440 1437 1434 1432 1430 1428 1426 1425 1423 1422 1421 1420 1420 1420 1420 1420 1421 1422 1423 1424 1425 1426 1428
1490 1489 1488 1487 1485 1483 1481 1478 1476 1473 1469 1465 1461 1457 1454 1450 1446 1443 1440 1437 1434 1431 1428 1425 1423 1420 1419 1417 1415 1413 1412 1411 1410 1409 1409 1409 1409 1410 1411 1412 1413 1414 1415
1489 1488 1486 1485 1483 1481 1479 1476 1473 1470 1467 1462 1458 1453 1449 1445 1442 1439 1436 1433 1430 1426 1422 1419 1416 1412 1409 1408 1405 1404 1402 1400 1399 1398 1397 1396 1397 1397 1398 1399 1400 1401 1402
1488 1487 1486 1484 1482 1480 1477 1474 1470 1467 1463 1459 1453 1448 1443 1440 1437 1435 1431 1428 1425 1421 1418 1414 1410 1406 1402 1398 1395 1393 1392 1390 1388 1386 1384 1383 1383 1383 1384 1385 1386 1387 1389
1489 1487 1485 1483 1480 1478 1474 1470 1466 1462 1458 1455 1451 1443 1437 1434 1431 1429 1425 1421 1418 1414 1411 1407 1403 1399 1396 1392 1387 1384 1382 1380 1377 1375 1372 1371 1369 1369 1369 1369 1371 1372 1374
1488 1486 1484 1481 1478 1474 1470 1466 1462 1458 1455 1452 1449 1446 1438 1429 1424 1420 1418 1415 1412 1407 1403 1399 1396 1392 1388 1384 1380 1376 1373 1370 1367 1364 1361 1359 1357 1355 1354 1355 1355 1357 1358
1487 1484 1481 1478 1474 1470 1467 1463 1460 1456 1452 1448 1445 1442 1439 1432 1424 1413 1411 1409 1405 1400 1396 1391 1387 1383 1380 1375 1371 1368 1364 1359 1356 1353 1350 1348 1345 1343 1342 1341 1341 1342 1343
1485 1481 1478 1474 1471 1467 1464 1460 1457 1453 1449 1445 1442 1438 1434 1429 1424 1415 1403 1399 1397 1393 1389 1384 1379 1375 1371 1367 1363 1360 1353 1348 1345 1342 1339 1336 1334 1332 1330 1328 1328 1328 1329
1482 1478 1474 1471 1468 1465 1461 1457 1454 1450 1446 1442 1438 1434 1430 1425 1419 1413 1402 1391 1386 1383 1380 1376 1371 1367 1362 1358 1354 1349 1343 1339 1335 1332 1329 1326 1323 1320 1318 1315 1314 1313 1313
1479 1476 1472 1469 1465 1462 1458 1454 1450 1446 1442 1438 1433 1429 1424 1420 1415 1409 1400 1389 1380 1373 1370 1366 1364 1360 1355 1350 1345 1340 1334 1330 1326 1323 1319 1316 1312 1309 1306 1304 1303 1301 1301
1477 1473 1470 1466 1462 1459 1455 1451 1446 1442 1437 1433 1428 1423 1418 1413 1409 1403 1397 1389 1377 1366 1360 1356 1355 1352 1348 1343 1337 1331 1326 1322 1318 1313 1309 1305 1301 1297 1295 1293 1291 1290 1289
1474 1470 1467 1463 1459 1455 1451 1446 1442 1437 1432 1428 1422 1417 1412 1407 1402 1397 1392 1387 1379 1367 1354 1347 1343 1341 1338 1334 1328 1322 1317 1312 1307 1302 1297 1293 1289 1286 1283 1281 1279 1277 1276
1471 1467 1463 1459 1455 1451 1446 1441 1436 1431 1427 1422 1416 1411 1406 1401 1396 1390 1385 1379 1374 1366 1354 1344 1337 1331 1328 1323 1318 1313 1307 1301 1295 1290 1286 1281 1277 1274 1271 1268 1266 1265 1264
1467 1464 1459 1455 1451 1446 1441 1436 1431 1425 1420 1415 1410 1404 1399 1394 1388 1383 1377 1371 1365 1359 1349 1338 1332 1324 1318 1313 1307 1302 1297 1291 1284 1279 1274 1269 1265 1262 1258 1256 1254 1252 1252
1464 1460 1455 1451 1446 1441 1436 1430 1424 1419 1414 1408 1403 1397 1392 1386 1380 1375 1369 1363 1357 1351 1343 1333 1324 1317 1310 1304 1298 1292 1287 1281 1274 1268 1263 1258 1254 1250 1247 1245 1242 1240 1239
1460 1456 1451 1446 1441 1435 1429 1424 1418 1413 1407 1401 1396 1390 1384 1379 1373 1367 1362 1355 1349 1343 1336 1328 1318 1310 1302 1296 1290 1283 1277 1271 1264 1258 1253 1248 1244 1240 1237 1233 1230 1228 1227
1456 1451 1446 1440 1435 1429 1423 1417 1411 1405 1399 1394 1388 1383 1377 1372 1366 1360 1353 1348 1342 1335 1328 1320 1311 1303 1296 1289 1283 1275 1267 1262 1255 1249 1243 1238 1234 1230 1226 1222 1219 1217 1216
1451 1445 1440 1434 1429 1423 1417 1411 1403 1397 1391 1386 1381 1376 1370 1365 1358 1353 1347 1341 1335 1328 1320 1313 1305 1297 1289 1282 1275 1268 1260 1252 1245 1241 1234 1229 1225 1220 1215 1211 1207 1205 1205
1445 1440 1434 1429 1423 1417 1411 1403 1397 1390 1384 1379 1373 1368 1362 1357 1351 1346 1340 1334 1329 1321 1313 1306 1298 1291 1283 1276 1268 1261 1254 1246 1236 1231 1227 1219 1216 1210 1205 1200 1196 1195 1194
1440 1434 1429 1423 1416 1410 1403 1396 1389 1384 1378 1373 1367 1362 1356 1350 1345 1338 1331 1325 1319 1313 1308 1302 1293 1285 1276 1269 1262 1253 1246 1239 1229 1223 1220 1209 1205 1200 1195 1190 1187 1184 1183
1434 1428 1422 1416 1409 1402 1395 1389 1383 1378 1372 1367 1363 1357 1351 1344 1338 1331 1323 1315 1309 1304 1300 1293 1286 1276 1268 1261 1254 1247 1238 1228 1219 1215 1212 1203 1197 1192 1187 1181 1177 1174 1173
1428 1422 1416 1409 1402 1395 1389 1383 1378 1372 1366 1362 1357 1351 1345 1338 1332 1325 1317 1308 1300 1294 1289 1282 1275 1267 1259 1251 1245 1238 1229 1222 1212 1207 1205 1198 1190 1185 1178 1173 1168 1166 1164
1422 1416 1409 1403 1396 1389 1384 1379 1374 1368 1362 1356 1350 1344 1339 1332 1325 1318 1311 1302 1293 1285 1278 1269 1262 1255 1247 1240 1236 1231 1224 1216 1207 1200 1198 1193 1186 1181 1172 1166 1163 1160 1157